Year,Month,Day,Hour,Minute,Value (Times are PST for temperature in C)
2015,09,20,00,00,14.20
2015,09,20,00,01,14.20
2015,09,20,00,02,14.20
2015,09,20,00,03,14.20
2015,09,20,00,04,14.20
2015,09,20,00,05,14.30
2015,09,20,00,06,14.30
2015,09,20,00,07,14.30
2015,09,20,00,08,14.30
2015,09,20,00,09,14.30
2015,09,20,00,10,14.30
2015,09,20,00,11,14.30
2015,09,20,00,12,14.20
2015,09,20,00,13,14.20
2015,09,20,00,14,14.30
2015,09,20,00,15,14.30
2015,09,20,00,16,14.30
2015,09,20,00,17,14.40
2015,09,20,00,18,14.40
2015,09,20,00,19,14.40
2015,09,20,00,20,14.40
2015,09,20,00,21,14.50
2015,09,20,00,22,14.50
2015,09,20,00,23,14.40
2015,09,20,00,24,14.40
2015,09,20,00,25,14.40
2015,09,20,00,26,14.40
2015,09,20,00,27,14.40
2015,09,20,00,28,14.40
2015,09,20,00,29,14.40
2015,09,20,00,30,14.50
2015,09,20,00,31,14.50
2015,09,20,00,32,14.50
2015,09,20,00,33,14.50
2015,09,20,00,34,14.50
2015,09,20,00,35,14.40
2015,09,20,00,36,14.40
2015,09,20,00,37,14.40
2015,09,20,00,38,14.40
2015,09,20,00,39,14.40
2015,09,20,00,40,14.40
2015,09,20,00,41,14.40
2015,09,20,00,42,14.40
2015,09,20,00,43,14.40
2015,09,20,00,44,14.30
2015,09,20,00,45,14.30
2015,09,20,00,46,14.30
2015,09,20,00,47,14.30
2015,09,20,00,48,14.30
2015,09,20,00,49,14.30
2015,09,20,00,50,14.30
2015,09,20,00,51,14.30
2015,09,20,00,52,14.30
2015,09,20,00,53,14.20
2015,09,20,00,54,14.20
2015,09,20,00,55,14.20
2015,09,20,00,56,14.20
2015,09,20,00,57,14.10
2015,09,20,00,58,14.10
2015,09,20,00,59,14.10
2015,09,20,01,00,14.10
2015,09,20,01,01,14.00
2015,09,20,01,02,14.00
2015,09,20,01,03,14.00
2015,09,20,01,04,14.00
2015,09,20,01,05,14.00
2015,09,20,01,06,13.90
2015,09,20,01,07,13.90
2015,09,20,01,08,13.90
2015,09,20,01,09,13.90
2015,09,20,01,10,13.90
2015,09,20,01,11,13.90
2015,09,20,01,12,13.90
2015,09,20,01,13,13.90
2015,09,20,01,14,13.90
2015,09,20,01,15,13.90
2015,09,20,01,16,13.80
2015,09,20,01,17,13.80
2015,09,20,01,18,13.80
2015,09,20,01,19,13.80
2015,09,20,01,20,13.80
2015,09,20,01,21,13.80
2015,09,20,01,22,13.80
2015,09,20,01,23,13.80
2015,09,20,01,24,13.80
2015,09,20,01,25,13.80
2015,09,20,01,26,13.80
2015,09,20,01,27,13.80
2015,09,20,01,28,13.80
2015,09,20,01,29,13.80
2015,09,20,01,30,13.80
2015,09,20,01,31,13.80
2015,09,20,01,32,13.80
2015,09,20,01,33,13.80
2015,09,20,01,34,13.80
2015,09,20,01,35,13.70
2015,09,20,01,36,13.80
2015,09,20,01,37,13.70
2015,09,20,01,38,13.80
2015,09,20,01,39,13.80
2015,09,20,01,40,13.70
2015,09,20,01,41,13.70
2015,09,20,01,42,13.70
2015,09,20,01,43,13.70
2015,09,20,01,44,13.70
2015,09,20,01,45,13.70
2015,09,20,01,46,13.70
2015,09,20,01,47,13.70
2015,09,20,01,48,13.70
2015,09,20,01,49,13.70
2015,09,20,01,50,13.70
2015,09,20,01,51,13.70
2015,09,20,01,52,13.70
2015,09,20,01,53,13.70
2015,09,20,01,54,13.70
2015,09,20,01,55,13.70
2015,09,20,01,56,13.70
2015,09,20,01,57,13.70
2015,09,20,01,58,13.70
2015,09,20,01,59,13.70
2015,09,20,02,00,13.70
2015,09,20,02,01,13.70
2015,09,20,02,02,13.70
2015,09,20,02,03,13.60
2015,09,20,02,04,13.60
2015,09,20,02,05,13.60
2015,09,20,02,06,13.60
2015,09,20,02,07,13.60
2015,09,20,02,08,13.50
2015,09,20,02,09,13.50
2015,09,20,02,10,13.50
2015,09,20,02,11,13.50
2015,09,20,02,12,13.40
2015,09,20,02,13,13.40
2015,09,20,02,14,13.40
2015,09,20,02,15,13.40
2015,09,20,02,16,13.40
2015,09,20,02,17,13.40
2015,09,20,02,18,13.50
2015,09,20,02,19,13.40
2015,09,20,02,20,13.50
2015,09,20,02,21,13.50
2015,09,20,02,22,13.50
2015,09,20,02,23,13.50
2015,09,20,02,24,13.50
2015,09,20,02,25,13.50
2015,09,20,02,26,13.50
2015,09,20,02,27,13.50
2015,09,20,02,28,13.50
2015,09,20,02,29,13.50
2015,09,20,02,30,13.50
2015,09,20,02,31,13.50
2015,09,20,02,32,13.50
2015,09,20,02,33,13.50
2015,09,20,02,34,13.50
2015,09,20,02,35,13.50
2015,09,20,02,36,13.50
2015,09,20,02,37,13.50
2015,09,20,02,38,13.60
2015,09,20,02,39,13.60
2015,09,20,02,40,13.50
2015,09,20,02,41,13.50
2015,09,20,02,42,13.50
2015,09,20,02,43,13.60
2015,09,20,02,44,13.60
2015,09,20,02,45,13.60
2015,09,20,02,46,13.60
2015,09,20,02,47,13.60
2015,09,20,02,48,13.60
2015,09,20,02,49,13.60
2015,09,20,02,50,13.60
2015,09,20,02,51,13.60
2015,09,20,02,52,13.60
2015,09,20,02,53,13.60
2015,09,20,02,54,13.60
2015,09,20,02,55,13.60
2015,09,20,02,56,13.60
2015,09,20,02,57,13.60
2015,09,20,02,58,13.60
2015,09,20,02,59,13.60
2015,09,20,03,00,13.60
2015,09,20,03,01,13.60
2015,09,20,03,02,13.60
2015,09,20,03,03,13.60
2015,09,20,03,04,13.60
2015,09,20,03,05,13.60
2015,09,20,03,06,13.60
2015,09,20,03,07,13.60
2015,09,20,03,08,13.70
2015,09,20,03,09,13.70
2015,09,20,03,10,13.70
2015,09,20,03,11,13.60
2015,09,20,03,12,13.60
2015,09,20,03,13,13.60
2015,09,20,03,14,13.60
2015,09,20,03,15,13.70
2015,09,20,03,16,13.70
2015,09,20,03,17,13.70
2015,09,20,03,18,13.70
2015,09,20,03,19,13.70
2015,09,20,03,20,13.70
2015,09,20,03,21,13.70
2015,09,20,03,22,13.70
2015,09,20,03,23,13.70
2015,09,20,03,24,13.70
2015,09,20,03,25,13.70
2015,09,20,03,26,13.70
2015,09,20,03,27,13.70
2015,09,20,03,28,13.80
2015,09,20,03,29,13.80
2015,09,20,03,30,13.90
2015,09,20,03,31,13.90
2015,09,20,03,32,13.90
2015,09,20,03,33,13.90
2015,09,20,03,34,13.90
2015,09,20,03,35,13.90
2015,09,20,03,36,13.90
2015,09,20,03,37,13.90
2015,09,20,03,38,13.90
2015,09,20,03,39,13.90
2015,09,20,03,40,13.90
2015,09,20,03,41,14.00
2015,09,20,03,42,13.90
2015,09,20,03,43,13.90
2015,09,20,03,44,14.00
2015,09,20,03,45,14.00
2015,09,20,03,46,14.00
2015,09,20,03,47,14.00
2015,09,20,03,48,14.00
2015,09,20,03,49,14.00
2015,09,20,03,50,14.00
2015,09,20,03,51,14.00
2015,09,20,03,52,14.00
2015,09,20,03,53,14.00
2015,09,20,03,54,14.00
2015,09,20,03,55,14.00
2015,09,20,03,56,14.00
2015,09,20,03,57,14.00
2015,09,20,03,58,14.00
2015,09,20,03,59,14.10
2015,09,20,04,00,14.10
2015,09,20,04,01,14.00
2015,09,20,04,02,14.00
2015,09,20,04,03,14.00
2015,09,20,04,04,14.00
2015,09,20,04,05,14.00
2015,09,20,04,06,14.00
2015,09,20,04,07,14.00
2015,09,20,04,08,14.00
2015,09,20,04,09,14.00
2015,09,20,04,10,13.90
2015,09,20,04,11,13.90
2015,09,20,04,12,13.90
2015,09,20,04,13,13.80
2015,09,20,04,14,13.80
2015,09,20,04,15,13.80
2015,09,20,04,16,13.80
2015,09,20,04,17,13.80
2015,09,20,04,18,13.80
2015,09,20,04,19,13.80
2015,09,20,04,20,13.80
2015,09,20,04,21,13.90
2015,09,20,04,22,13.90
2015,09,20,04,23,13.90
2015,09,20,04,24,14.00
2015,09,20,04,25,14.00
2015,09,20,04,26,14.00
2015,09,20,04,27,14.10
2015,09,20,04,28,14.30
2015,09,20,04,29,14.40
2015,09,20,04,30,14.50
2015,09,20,04,31,14.50
2015,09,20,04,32,14.60
2015,09,20,04,33,14.60
2015,09,20,04,34,14.60
2015,09,20,04,35,14.70
2015,09,20,04,36,14.70
2015,09,20,04,37,14.80
2015,09,20,04,38,14.80
2015,09,20,04,39,14.90
2015,09,20,04,40,14.90
2015,09,20,04,41,14.90
2015,09,20,04,42,14.80
2015,09,20,04,43,14.80
2015,09,20,04,44,15.00
2015,09,20,04,45,15.00
2015,09,20,04,46,15.00
2015,09,20,04,47,15.00
2015,09,20,04,48,15.00
2015,09,20,04,49,15.00
2015,09,20,04,50,15.00
2015,09,20,04,51,15.20
2015,09,20,04,52,15.30
2015,09,20,04,53,15.50
2015,09,20,04,54,15.60
2015,09,20,04,55,15.70
2015,09,20,04,56,15.80
2015,09,20,04,57,15.80
2015,09,20,04,58,15.80
2015,09,20,04,59,15.70
2015,09,20,05,00,15.60
2015,09,20,05,01,15.40
2015,09,20,05,02,15.30
2015,09,20,05,03,15.10
2015,09,20,05,04,15.00
2015,09,20,05,05,15.00
2015,09,20,05,06,14.90
2015,09,20,05,07,14.70
2015,09,20,05,08,14.60
2015,09,20,05,09,14.50
2015,09,20,05,10,14.40
2015,09,20,05,11,14.40
2015,09,20,05,12,14.30
2015,09,20,05,13,14.30
2015,09,20,05,14,14.30
2015,09,20,05,15,14.30
2015,09,20,05,16,14.30
2015,09,20,05,17,14.30
2015,09,20,05,18,14.30
2015,09,20,05,19,14.30
2015,09,20,05,20,14.30
2015,09,20,05,21,14.30
2015,09,20,05,22,14.30
2015,09,20,05,23,14.30
2015,09,20,05,24,14.30
2015,09,20,05,25,14.30
2015,09,20,05,26,14.40
2015,09,20,05,27,14.40
2015,09,20,05,28,14.50
2015,09,20,05,29,14.50
2015,09,20,05,30,14.60
2015,09,20,05,31,14.70
2015,09,20,05,32,14.70
2015,09,20,05,33,14.70
2015,09,20,05,34,14.80
2015,09,20,05,35,14.80
2015,09,20,05,36,14.80
2015,09,20,05,37,14.80
2015,09,20,05,38,14.90
2015,09,20,05,39,14.90
2015,09,20,05,40,15.00
2015,09,20,05,41,15.00
2015,09,20,05,42,15.00
2015,09,20,05,43,15.00
2015,09,20,05,44,14.90
2015,09,20,05,45,14.70
2015,09,20,05,46,14.70
2015,09,20,05,47,14.60
2015,09,20,05,48,14.50
2015,09,20,05,49,14.50
2015,09,20,05,50,14.40
2015,09,20,05,51,14.40
2015,09,20,05,52,14.40
2015,09,20,05,53,14.40
2015,09,20,05,54,14.30
2015,09,20,05,55,14.30
2015,09,20,05,56,14.30
2015,09,20,05,57,14.30
2015,09,20,05,58,14.30
2015,09,20,05,59,14.30
2015,09,20,06,00,14.30
2015,09,20,06,01,14.20
2015,09,20,06,02,14.20
2015,09,20,06,03,14.20
2015,09,20,06,04,14.20
2015,09,20,06,05,14.20
2015,09,20,06,06,14.10
2015,09,20,06,07,14.10
2015,09,20,06,08,14.10
2015,09,20,06,09,14.10
2015,09,20,06,10,14.10
2015,09,20,06,11,14.10
2015,09,20,06,12,14.10
2015,09,20,06,13,14.10
2015,09,20,06,14,14.10
2015,09,20,06,15,14.00
2015,09,20,06,16,14.00
2015,09,20,06,17,14.00
2015,09,20,06,18,14.00
2015,09,20,06,19,14.00
2015,09,20,06,20,14.00
2015,09,20,06,21,14.00
2015,09,20,06,22,14.00
2015,09,20,06,23,14.00
2015,09,20,06,24,14.00
2015,09,20,06,25,14.00
2015,09,20,06,26,14.00
2015,09,20,06,27,13.90
2015,09,20,06,28,13.90
2015,09,20,06,29,13.90
2015,09,20,06,30,13.90
2015,09,20,06,31,13.90
2015,09,20,06,32,13.90
2015,09,20,06,33,13.90
2015,09,20,06,34,13.90
2015,09,20,06,35,13.90
2015,09,20,06,36,13.90
2015,09,20,06,37,13.90
2015,09,20,06,38,13.80
2015,09,20,06,39,13.80
2015,09,20,06,40,13.80
2015,09,20,06,41,13.80
2015,09,20,06,42,13.80
2015,09,20,06,43,13.80
2015,09,20,06,44,13.80
2015,09,20,06,45,13.80
2015,09,20,06,46,13.80
2015,09,20,06,47,13.80
2015,09,20,06,48,13.80
2015,09,20,06,49,13.80
2015,09,20,06,50,13.90
2015,09,20,06,51,13.90
2015,09,20,06,52,13.90
2015,09,20,06,53,13.90
2015,09,20,06,54,13.90
2015,09,20,06,55,14.00
2015,09,20,06,56,14.00
2015,09,20,06,57,14.10
2015,09,20,06,58,14.10
2015,09,20,06,59,14.10
2015,09,20,07,00,14.10
2015,09,20,07,01,14.00
2015,09,20,07,02,14.00
2015,09,20,07,03,14.00
2015,09,20,07,04,14.00
2015,09,20,07,05,13.90
2015,09,20,07,06,13.90
2015,09,20,07,07,13.90
2015,09,20,07,08,13.90
2015,09,20,07,09,13.90
2015,09,20,07,10,13.90
2015,09,20,07,11,13.90
2015,09,20,07,12,13.90
2015,09,20,07,13,13.90
2015,09,20,07,14,13.90
2015,09,20,07,15,13.90
2015,09,20,07,16,13.90
2015,09,20,07,17,13.90
2015,09,20,07,18,13.90
2015,09,20,07,19,13.80
2015,09,20,07,20,13.80
2015,09,20,07,21,13.80
2015,09,20,07,22,13.80
2015,09,20,07,23,13.80
2015,09,20,07,24,13.80
2015,09,20,07,25,13.80
2015,09,20,07,26,13.80
2015,09,20,07,27,13.80
2015,09,20,07,28,13.80
2015,09,20,07,29,13.80
2015,09,20,07,30,13.80
2015,09,20,07,31,13.80
2015,09,20,07,32,13.80
2015,09,20,07,33,13.80
2015,09,20,07,34,13.80
2015,09,20,07,35,13.80
2015,09,20,07,36,13.90
2015,09,20,07,37,13.90
2015,09,20,07,38,13.90
2015,09,20,07,39,13.90
2015,09,20,07,40,13.90
2015,09,20,07,41,13.90
2015,09,20,07,42,13.90
2015,09,20,07,43,13.90
2015,09,20,07,44,14.00
2015,09,20,07,45,14.00
2015,09,20,07,46,14.00
2015,09,20,07,47,14.00
2015,09,20,07,48,14.00
2015,09,20,07,49,14.10
2015,09,20,07,50,14.10
2015,09,20,07,51,14.10
2015,09,20,07,52,14.20
2015,09,20,07,53,14.20
2015,09,20,07,54,14.30
2015,09,20,07,55,14.30
2015,09,20,07,56,14.60
2015,09,20,07,57,14.90
2015,09,20,07,58,15.00
2015,09,20,07,59,15.00
2015,09,20,08,00,15.20
2015,09,20,08,01,15.30
2015,09,20,08,02,15.40
2015,09,20,08,03,15.50
2015,09,20,08,04,15.60
2015,09,20,08,05,15.70
2015,09,20,08,06,15.70
2015,09,20,08,07,15.70
2015,09,20,08,08,15.70
2015,09,20,08,09,15.70
2015,09,20,08,10,15.70
2015,09,20,08,11,15.60
2015,09,20,08,12,15.50
2015,09,20,08,13,15.50
2015,09,20,08,14,15.40
2015,09,20,08,15,15.40
2015,09,20,08,16,15.40
2015,09,20,08,17,15.30
2015,09,20,08,18,15.30
2015,09,20,08,19,15.30
2015,09,20,08,20,15.30
2015,09,20,08,21,15.30
2015,09,20,08,22,15.40
2015,09,20,08,23,15.40
2015,09,20,08,24,15.40
2015,09,20,08,25,15.30
2015,09,20,08,26,15.30
2015,09,20,08,27,15.30
2015,09,20,08,28,15.30
2015,09,20,08,29,15.20
2015,09,20,08,30,15.10
2015,09,20,08,31,15.10
2015,09,20,08,32,15.00
2015,09,20,08,33,15.00
2015,09,20,08,34,15.00
2015,09,20,08,35,15.00
2015,09,20,08,36,15.00
2015,09,20,08,37,15.00
2015,09,20,08,38,15.00
2015,09,20,08,39,15.00
2015,09,20,08,40,15.00
2015,09,20,08,41,15.00
2015,09,20,08,42,15.00
2015,09,20,08,43,15.00
2015,09,20,08,44,15.00
2015,09,20,08,45,15.00
2015,09,20,08,46,15.00
2015,09,20,08,47,15.00
2015,09,20,08,48,15.00
2015,09,20,08,49,15.00
2015,09,20,08,50,15.00
2015,09,20,08,51,15.00
2015,09,20,08,52,15.10
2015,09,20,08,53,15.10
2015,09,20,08,54,15.20
2015,09,20,08,55,15.20
2015,09,20,08,56,15.20
2015,09,20,08,57,15.30
2015,09,20,08,58,15.30
2015,09,20,08,59,15.30
2015,09,20,09,00,15.40
2015,09,20,09,01,15.40
2015,09,20,09,02,15.50
2015,09,20,09,03,15.60
2015,09,20,09,04,15.70
2015,09,20,09,05,15.90
2015,09,20,09,06,16.10
2015,09,20,09,07,16.20
2015,09,20,09,08,16.40
2015,09,20,09,09,16.70
2015,09,20,09,10,16.90
2015,09,20,09,11,17.10
2015,09,20,09,12,17.30
2015,09,20,09,13,17.60
2015,09,20,09,14,17.90
2015,09,20,09,15,18.30
2015,09,20,09,16,18.60
2015,09,20,09,17,18.90
2015,09,20,09,18,19.20
2015,09,20,09,19,19.50
2015,09,20,09,20,19.70
2015,09,20,09,21,19.90
2015,09,20,09,22,20.10
2015,09,20,09,23,19.60
2015,09,20,09,24,18.90
2015,09,20,09,25,18.30
2015,09,20,09,26,17.90
2015,09,20,09,27,17.50
2015,09,20,09,28,17.20
2015,09,20,09,29,16.90
2015,09,20,09,30,16.80
2015,09,20,09,31,16.60
2015,09,20,09,32,16.40
2015,09,20,09,33,16.30
2015,09,20,09,34,16.30
2015,09,20,09,35,16.30
2015,09,20,09,36,16.30
2015,09,20,09,37,16.40
2015,09,20,09,38,16.50
2015,09,20,09,39,16.60
2015,09,20,09,40,16.70
2015,09,20,09,41,16.80
2015,09,20,09,42,16.90
2015,09,20,09,43,17.00
2015,09,20,09,44,17.10
2015,09,20,09,45,17.20
2015,09,20,09,46,17.20
2015,09,20,09,47,17.30
2015,09,20,09,48,17.30
2015,09,20,09,49,17.30
2015,09,20,09,50,17.30
2015,09,20,09,51,17.30
2015,09,20,09,52,17.30
2015,09,20,09,53,17.30
2015,09,20,09,54,17.40
2015,09,20,09,55,17.40
2015,09,20,09,56,17.40
2015,09,20,09,57,17.40
2015,09,20,09,58,17.40
2015,09,20,09,59,17.50
2015,09,20,10,00,17.50
2015,09,20,10,01,17.60
2015,09,20,10,02,17.60
2015,09,20,10,03,17.70
2015,09,20,10,04,17.70
2015,09,20,10,05,17.80
2015,09,20,10,06,17.80
2015,09,20,10,07,17.80
2015,09,20,10,08,17.70
2015,09,20,10,09,17.70
2015,09,20,10,10,17.80
2015,09,20,10,11,17.80
2015,09,20,10,12,17.90
2015,09,20,10,13,18.00
2015,09,20,10,14,18.10
2015,09,20,10,15,18.10
2015,09,20,10,16,18.20
2015,09,20,10,17,18.30
2015,09,20,10,18,18.50
2015,09,20,10,19,18.60
2015,09,20,10,20,18.60
2015,09,20,10,21,18.60
2015,09,20,10,22,18.60
2015,09,20,10,23,18.50
2015,09,20,10,24,18.50
2015,09,20,10,25,18.40
2015,09,20,10,26,18.40
2015,09,20,10,27,18.40
2015,09,20,10,28,18.40
2015,09,20,10,29,18.40
2015,09,20,10,30,18.40
2015,09,20,10,31,18.30
2015,09,20,10,32,18.40
2015,09,20,10,33,18.40
2015,09,20,10,34,18.30
2015,09,20,10,35,18.40
2015,09,20,10,36,18.40
2015,09,20,10,37,18.40
2015,09,20,10,38,18.40
2015,09,20,10,39,18.40
2015,09,20,10,40,18.40
2015,09,20,10,41,18.40
2015,09,20,10,42,18.40
2015,09,20,10,43,18.50
2015,09,20,10,44,18.50
2015,09,20,10,45,18.50
2015,09,20,10,46,18.40
2015,09,20,10,47,18.40
2015,09,20,10,48,18.40
2015,09,20,10,49,18.40
2015,09,20,10,50,18.40
2015,09,20,10,51,18.50
2015,09,20,10,52,18.50
2015,09,20,10,53,18.60
2015,09,20,10,54,18.60
2015,09,20,10,55,18.60
2015,09,20,10,56,18.60
2015,09,20,10,57,18.60
2015,09,20,10,58,18.60
2015,09,20,10,59,18.60
2015,09,20,11,00,18.60
2015,09,20,11,01,18.60
2015,09,20,11,02,18.60
2015,09,20,11,03,18.70
2015,09,20,11,04,18.70
2015,09,20,11,05,18.70
2015,09,20,11,06,18.70
2015,09,20,11,07,18.70
2015,09,20,11,08,18.70
2015,09,20,11,09,18.80
2015,09,20,11,10,18.80
2015,09,20,11,11,18.70
2015,09,20,11,12,18.60
2015,09,20,11,13,18.60
2015,09,20,11,14,18.50
2015,09,20,11,15,18.50
2015,09,20,11,16,18.50
2015,09,20,11,17,18.40
2015,09,20,11,18,18.30
2015,09,20,11,19,18.20
2015,09,20,11,20,18.10
2015,09,20,11,21,18.00
2015,09,20,11,22,17.90
2015,09,20,11,23,17.70
2015,09,20,11,24,17.60
2015,09,20,11,25,17.60
2015,09,20,11,26,17.60
2015,09,20,11,27,17.50
2015,09,20,11,28,17.50
2015,09,20,11,29,17.50
2015,09,20,11,30,17.50
2015,09,20,11,31,17.50
2015,09,20,11,32,17.50
2015,09,20,11,33,17.50
2015,09,20,11,34,17.50
2015,09,20,11,35,17.50
2015,09,20,11,36,17.50
2015,09,20,11,37,17.50
2015,09,20,11,38,17.50
2015,09,20,11,39,17.50
2015,09,20,11,40,17.50
2015,09,20,11,41,17.50
2015,09,20,11,42,17.40
2015,09,20,11,43,17.40
2015,09,20,11,44,17.30
2015,09,20,11,45,17.20
2015,09,20,11,46,17.10
2015,09,20,11,47,17.00
2015,09,20,11,48,17.00
2015,09,20,11,49,16.90
2015,09,20,11,50,16.70
2015,09,20,11,51,16.50
2015,09,20,11,52,16.40
2015,09,20,11,53,16.20
2015,09,20,11,54,16.10
2015,09,20,11,55,16.00
2015,09,20,11,56,15.80
2015,09,20,11,57,15.70
2015,09,20,11,58,15.60
2015,09,20,11,59,15.50
2015,09,20,12,00,15.40
2015,09,20,12,01,15.30
2015,09,20,12,02,15.00
2015,09,20,12,03,15.00
2015,09,20,12,04,15.00
2015,09,20,12,05,15.00
2015,09,20,12,06,14.90
2015,09,20,12,07,14.80
2015,09,20,12,08,14.70
2015,09,20,12,09,14.60
2015,09,20,12,10,14.50
2015,09,20,12,11,14.40
2015,09,20,12,12,14.30
2015,09,20,12,13,14.30
2015,09,20,12,14,14.20
2015,09,20,12,15,14.20
2015,09,20,12,16,14.20
2015,09,20,12,17,14.20
2015,09,20,12,18,14.10
2015,09,20,12,19,14.10
2015,09,20,12,20,14.00
2015,09,20,12,21,13.90
2015,09,20,12,22,13.80
2015,09,20,12,23,13.70
2015,09,20,12,24,13.60
2015,09,20,12,25,13.60
2015,09,20,12,26,13.50
2015,09,20,12,27,13.50
2015,09,20,12,28,13.40
2015,09,20,12,29,13.30
2015,09,20,12,30,13.30
2015,09,20,12,31,13.30
2015,09,20,12,32,13.20
2015,09,20,12,33,13.20
2015,09,20,12,34,13.10
2015,09,20,12,35,13.10
2015,09,20,12,36,13.10
2015,09,20,12,37,13.10
2015,09,20,12,38,13.10
2015,09,20,12,39,13.10
2015,09,20,12,40,13.00
2015,09,20,12,41,13.00
2015,09,20,12,42,13.00
2015,09,20,12,43,13.00
2015,09,20,12,44,13.00
2015,09,20,12,45,12.90
2015,09,20,12,46,12.90
2015,09,20,12,47,12.90
2015,09,20,12,48,12.80
2015,09,20,12,49,12.80
2015,09,20,12,50,12.80
2015,09,20,12,51,12.70
2015,09,20,12,52,12.70
2015,09,20,12,53,12.70
2015,09,20,12,54,12.70
2015,09,20,12,55,12.70
2015,09,20,12,56,12.60
2015,09,20,12,57,12.60
2015,09,20,12,58,12.60
2015,09,20,12,59,12.50
2015,09,20,13,00,12.50
2015,09,20,13,01,12.50
2015,09,20,13,02,12.40
2015,09,20,13,03,12.40
2015,09,20,13,04,12.40
2015,09,20,13,05,12.30
2015,09,20,13,06,12.30
2015,09,20,13,07,12.30
2015,09,20,13,08,12.30
2015,09,20,13,09,12.30
2015,09,20,13,10,12.30
2015,09,20,13,11,12.20
2015,09,20,13,12,12.20
2015,09,20,13,13,12.10
2015,09,20,13,14,12.10
2015,09,20,13,15,12.10
2015,09,20,13,16,12.10
2015,09,20,13,17,12.00
2015,09,20,13,18,11.90
2015,09,20,13,19,11.90
2015,09,20,13,20,11.90
2015,09,20,13,21,11.80
2015,09,20,13,22,11.80
2015,09,20,13,23,11.80
2015,09,20,13,24,11.80
2015,09,20,13,25,11.80
2015,09,20,13,26,11.80
2015,09,20,13,27,11.70
2015,09,20,13,28,11.70
2015,09,20,13,29,11.70
2015,09,20,13,30,11.70
2015,09,20,13,31,11.60
2015,09,20,13,32,11.60
2015,09,20,13,33,11.60
2015,09,20,13,34,11.60
2015,09,20,13,35,11.50
2015,09,20,13,36,11.50
2015,09,20,13,37,11.40
2015,09,20,13,38,11.40
2015,09,20,13,39,11.40
2015,09,20,13,40,11.40
2015,09,20,13,41,11.40
2015,09,20,13,42,11.40
2015,09,20,13,43,11.30
2015,09,20,13,44,11.30
2015,09,20,13,45,11.30
2015,09,20,13,46,11.30
2015,09,20,13,47,11.30
2015,09,20,13,48,11.30
2015,09,20,13,49,11.20
2015,09,20,13,50,11.20
2015,09,20,13,51,11.20
2015,09,20,13,52,11.20
2015,09,20,13,53,11.20
2015,09,20,13,54,11.20
2015,09,20,13,55,11.20
2015,09,20,13,56,11.20
2015,09,20,13,57,11.20
2015,09,20,13,58,11.20
2015,09,20,13,59,11.20
2015,09,20,14,00,11.20
2015,09,20,14,01,11.20
2015,09,20,14,02,11.20
2015,09,20,14,03,11.20
2015,09,20,14,04,11.20
2015,09,20,14,05,11.20
2015,09,20,14,06,11.20
2015,09,20,14,07,11.20
2015,09,20,14,08,11.20
2015,09,20,14,09,11.20
2015,09,20,14,10,11.20
2015,09,20,14,11,11.20
2015,09,20,14,12,11.30
2015,09,20,14,13,11.30
2015,09,20,14,14,11.30
2015,09,20,14,15,11.30
2015,09,20,14,16,11.30
2015,09,20,14,17,11.30
2015,09,20,14,18,11.30
2015,09,20,14,19,11.30
2015,09,20,14,20,11.40
2015,09,20,14,21,11.40
2015,09,20,14,22,11.40
2015,09,20,14,23,11.40
2015,09,20,14,24,11.40
2015,09,20,14,25,11.40
2015,09,20,14,26,11.40
2015,09,20,14,27,11.40
2015,09,20,14,28,11.40
2015,09,20,14,29,11.40
2015,09,20,14,30,11.40
2015,09,20,14,31,11.40
2015,09,20,14,32,11.40
2015,09,20,14,33,11.40
2015,09,20,14,34,11.40
2015,09,20,14,35,11.40
2015,09,20,14,36,11.40
2015,09,20,14,37,11.40
2015,09,20,14,38,11.30
2015,09,20,14,39,11.30
2015,09,20,14,40,11.30
2015,09,20,14,41,11.30
2015,09,20,14,42,11.40
2015,09,20,14,43,11.40
2015,09,20,14,44,11.30
2015,09,20,14,45,11.30
2015,09,20,14,46,11.30
2015,09,20,14,47,11.30
2015,09,20,14,48,11.30
2015,09,20,14,49,11.30
2015,09,20,14,50,11.30
2015,09,20,14,51,11.20
2015,09,20,14,52,11.20
2015,09,20,14,53,11.20
2015,09,20,14,54,11.20
2015,09,20,14,55,11.20
2015,09,20,14,56,11.20
2015,09,20,14,57,11.20
2015,09,20,14,58,11.20
2015,09,20,14,59,11.20
2015,09,20,15,00,11.20
2015,09,20,15,01,11.20
2015,09,20,15,02,11.20
2015,09,20,15,03,11.20
2015,09,20,15,04,11.20
2015,09,20,15,05,11.20
2015,09,20,15,06,11.20
2015,09,20,15,07,11.30
2015,09,20,15,08,11.30
2015,09,20,15,09,11.30
2015,09,20,15,10,11.30
2015,09,20,15,11,11.30
2015,09,20,15,12,11.30
2015,09,20,15,13,11.30
2015,09,20,15,14,11.30
2015,09,20,15,15,11.30
2015,09,20,15,16,11.30
2015,09,20,15,17,11.30
2015,09,20,15,18,11.30
2015,09,20,15,19,11.30
2015,09,20,15,20,11.30
2015,09,20,15,21,11.30
2015,09,20,15,22,11.30
2015,09,20,15,23,11.40
2015,09,20,15,24,11.40
2015,09,20,15,25,11.40
2015,09,20,15,26,11.50
2015,09,20,15,27,11.60
2015,09,20,15,28,11.60
2015,09,20,15,29,11.60
2015,09,20,15,30,11.70
2015,09,20,15,31,11.70
2015,09,20,15,32,11.70
2015,09,20,15,33,11.70
2015,09,20,15,34,11.80
2015,09,20,15,35,11.80
2015,09,20,15,36,11.80
2015,09,20,15,37,11.90
2015,09,20,15,38,11.90
2015,09,20,15,39,11.90
2015,09,20,15,40,12.00
2015,09,20,15,41,12.00
2015,09,20,15,42,12.10
2015,09,20,15,43,12.10
2015,09,20,15,44,12.20
2015,09,20,15,45,12.20
2015,09,20,15,46,12.20
2015,09,20,15,47,12.30
2015,09,20,15,48,12.30
2015,09,20,15,49,12.40
2015,09,20,15,50,12.40
2015,09,20,15,51,12.40
2015,09,20,15,52,12.50
2015,09,20,15,53,12.50
2015,09,20,15,54,12.50
2015,09,20,15,55,12.60
2015,09,20,15,56,12.60
2015,09,20,15,57,12.60
2015,09,20,15,58,12.60
2015,09,20,15,59,12.60
2015,09,20,16,00,12.70
2015,09,20,16,01,12.70
2015,09,20,16,02,12.70
2015,09,20,16,03,12.80
2015,09,20,16,04,12.80
2015,09,20,16,05,12.80
2015,09,20,16,06,12.80
2015,09,20,16,07,12.90
2015,09,20,16,08,12.90
2015,09,20,16,09,12.90
2015,09,20,16,10,13.00
2015,09,20,16,11,13.00
2015,09,20,16,12,13.10
2015,09,20,16,13,13.10
2015,09,20,16,14,13.20
2015,09,20,16,15,13.20
2015,09,20,16,16,13.20
2015,09,20,16,17,13.20
2015,09,20,16,18,13.20
2015,09,20,16,19,13.10
2015,09,20,16,20,13.10
2015,09,20,16,21,13.10
2015,09,20,16,22,13.10
2015,09,20,16,23,13.10
2015,09,20,16,24,13.10
2015,09,20,16,25,13.10
2015,09,20,16,26,13.10
2015,09,20,16,27,13.10
2015,09,20,16,28,13.10
2015,09,20,16,29,13.10
2015,09,20,16,30,13.10
2015,09,20,16,31,13.10
2015,09,20,16,32,13.10
2015,09,20,16,33,13.10
2015,09,20,16,34,13.10
2015,09,20,16,35,13.20
2015,09,20,16,36,13.20
2015,09,20,16,37,13.20
2015,09,20,16,38,13.20
2015,09,20,16,39,13.20
2015,09,20,16,40,13.20
2015,09,20,16,41,13.20
2015,09,20,16,42,13.20
2015,09,20,16,43,13.20
2015,09,20,16,44,13.20
2015,09,20,16,45,13.20
2015,09,20,16,46,13.20
2015,09,20,16,47,13.20
2015,09,20,16,48,13.20
2015,09,20,16,49,13.20
2015,09,20,16,50,13.10
2015,09,20,16,51,13.10
2015,09,20,16,52,13.10
2015,09,20,16,53,13.10
2015,09,20,16,54,13.10
2015,09,20,16,55,13.10
2015,09,20,16,56,13.00
2015,09,20,16,57,13.00
2015,09,20,16,58,13.00
2015,09,20,16,59,13.00
2015,09,20,17,00,13.10
2015,09,20,17,01,13.10
2015,09,20,17,02,13.10
2015,09,20,17,03,13.20
2015,09,20,17,04,13.20
2015,09,20,17,05,13.20
2015,09,20,17,06,13.20
2015,09,20,17,07,13.20
2015,09,20,17,08,13.20
2015,09,20,17,09,13.20
2015,09,20,17,10,13.20
2015,09,20,17,11,13.20
2015,09,20,17,12,13.20
2015,09,20,17,13,13.20
2015,09,20,17,14,13.20
2015,09,20,17,15,13.20
2015,09,20,17,16,13.20
2015,09,20,17,17,13.10
2015,09,20,17,18,13.10
2015,09,20,17,19,13.10